Wind_Speed
3 3 3 3 3 2 2 2 1 1 2 2 2 2 1 2 1 1 0 1 2 2 2 2 3 3 3 3 3 3 4 3 4 4 4 4 4 5 5 5 6 6 6 7 8 8 9 9 9
4 3 2 3 3 2 2 2 2 1 0 0 1 0 0 0 1 2 2 2 3 3 3 4 4 4 4 4 5 5 5 5 5 4 5 5 6 6 6 6 7 7 8 8 9 10 11 11 11
4 4 3 3 3 3 3 3 2 2 1 2 2 2 2 2 2 3 3 3 4 4 4 4 4 5 5 5 5 6 6 6 6 6 6 7 7 7 7 7 8 9 9 10 10 11 12 13 12
4 3 3 4 4 4 4 4 3 3 3 4 4 4 4 3 4 4 4 4 4 5 4 5 5 5 6 6 6 6 7 7 7 7 8 7 8 8 9 9 9 10 10 11 11 12 12 13 13
4 3 3 4 4 5 4 4 4 4 4 5 5 4 5 5 5 5 5 5 5 5 5 6 6 6 7 7 7 7 8 8 8 9 9 9 9 10 10 10 10 11 11 12 12 12 12 13 13
4 4 4 4 4 5 5 5 5 5 5 5 5 5 5 5 5 5 5 6 6 6 7 7 7 8 9 9 9 9 9 9 9 9 10 10 11 10 10 10 10 11 11 11 12 12 13 14 14
4 4 4 4 4 5 5 6 6 6 6 6 5 5 5 5 5 6 6 7 7 8 8 9 9 10 10 10 10 10 10 10 10 10 10 10 11 11 11 11 11 11 11 12 12 13 14 15 15
4 5 5 5 6 6 6 6 6 6 5 5 5 5 6 6 6 6 7 8 8 8 8 9 10 11 11 11 11 11 11 10 10 11 11 11 12 12 13 13 13 13 13 13 13 13 14 14 15
5 6 6 6 6 6 6 6 6 5 5 5 6 6 6 7 7 7 7 8 8 9 9 10 10 10 11 10 11 11 11 11 12 12 12 13 13 13 14 14 14 14 14 14 14 15 14 15 15
5 6 7 7 7 7 6 5 5 5 5 6 6 6 7 7 7 8 8 8 8 9 9 10 10 11 11 11 11 11 12 12 13 13 14 14 14 14 14 15 15 15 15 15 15 15 16 16 16
5 7 7 7 8 7 7 6 6 6 6 6 6 7 7 8 8 8 8 9 9 9 9 9 10 10 10 11 11 11 12 13 13 13 13 14 14 14 15 16 16 15 15 15 16 16 15 15 16
6 6 7 7 8 8 8 7 7 7 7 7 8 8 9 9 9 9 9 9 9 9 9 10 10 10 11 11 11 11 12 12 12 13 13 14 14 14 15 16 15 15 15 16 15 15 15 16 16
6 6 7 7 8 8 8 8 8 8 8 8 9 10 10 10 11 10 10 10 10 10 10 10 10 11 11 12 12 12 12 12 13 13 13 14 14 14 15 15 14 15 15 15 15 15 15 15 15
6 6 7 7 8 8 9 9 9 9 9 10 10 11 11 11 11 11 11 10 10 10 11 11 11 12 12 12 12 13 13 13 13 14 14 14 14 14 14 14 14 15 15 15 14 14 14 14 14
6 6 6 7 7 8 9 9 9 9 10 10 11 11 11 11 11 11 11 11 11 11 11 12 12 13 13 12 13 14 14 14 13 14 14 14 14 14 14 14 14 15 15 14 14 13 13 13 14
6 6 6 6 7 8 9 9 10 9 10 10 10 11 11 11 12 12 12 12 12 13 13 13 13 13 14 14 14 15 14 14 14 14 14 15 15 15 15 15 14 14 15 15 15 14 14 14 14
6 7 7 7 8 8 9 9 9 9 10 10 11 11 12 12 12 12 12 12 13 14 14 14 14 14 14 15 15 16 15 15 15 15 15 16 16 15 15 15 15 15 15 14 14 15 15 15 15
7 7 7 8 8 8 9 10 10 10 10 11 11 12 13 13 13 13 13 13 14 15 16 16 15 15 15 15 16 16 16 15 16 16 16 16 16 16 16 15 15 16 16 15 15 15 16 16 16
7 8 8 8 9 10 10 11 11 11 11 12 12 13 14 14 14 14 15 15 15 16 16 17 16 16 16 16 16 16 17 17 17 17 17 17 17 17 16 16 15 16 16 16 16 16 17 17 17
8 8 9 9 10 10 11 12 12 12 12 12 13 14 14 14 15 15 16 16 16 16 16 16 16 16 16 17 17 17 18 18 18 18 18 18 18 18 17 17 17 17 18 18 17 17 17 18 18
9 9 10 10 11 11 12 12 13 13 13 14 15 15 15 16 16 17 17 18 18 17 16 17 17 17 17 17 17 18 18 18 18 18 19 19 19 19 19 19 19 18 18 19 19 19 19 19 19
10 11 11 12 12 12 12 13 13 14 14 15 15 16 16 16 17 17 17 18 17 17 17 17 17 17 17 17 18 18 18 18 18 19 19 20 20 20 19 20 20 19 19 19 19 19 19 19 19
12 12 13 13 14 14 14 14 14 14 15 16 15 16 16 16 16 17 17 17 17 17 17 18 18 18 18 19 19 19 19 19 20 20 20 21 21 21 21 20 19 19 19 19 20 20 19 19 19
14 14 14 14 15 15 15 15 15 15 15 16 16 16 16 16 16 16 17 17 17 18 19 19 19 19 20 20 20 20 20 20 21 21 21 21 21 21 21 20 20 19 20 20 20 21 21 20 21
14 15 15 16 16 17 17 17 17 17 16 17 17 17 17 16 17 17 17 18 19 19 20 20 20 20 20 21 21 21 21 21 21 21 22 22 22 22 21 21 21 21 21 21 21 21 21 21 22
15 15 16 17 17 18 18 18 18 18 18 18 18 18 18 18 19 19 20 20 20 21 21 21 21 21 22 22 22 22 22 22 22 22 22 22 23 22 23 23 23 23 22 22 22 22 22 22 23
16 17 17 18 19 19 19 19 20 20 20 20 19 20 20 21 21 21 21 21 21 22 22 22 22 22 23 23 23 23 23 23 23 23 23 23 23 23 23 23 23 23 23 23 22 22 23 23 23
17 18 18 19 20 21 20 20 21 21 21 21 20 21 21 22 22 22 22 23 23 23 23 23 24 24 24 23 23 24 24 23 24 24 23 23 24 24 23 24 24 24 23 23 22 22 23 23 23
18 19 19 20 21 22 23 23 22 22 23 23 23 23 23 22 23 24 24 24 24 24 24 24 25 25 25 24 24 24 25 25 25 25 25 25 25 25 25 25 24 24 23 23 22 22 23 23 23
19 20 21 21 22 23 25 24 23 24 24 24 25 25 24 24 24 24 24 25 25 25 26 26 26 26 26 26 26 26 26 26 26 26 26 26 26 25 25 25 25 25 25 24 23 23 24 24 24
Wind_Direction
162 157 157 152 143 138 141 161 157 122 93 105 121 115 112 127 74 50 355 229 234 246 250 240 241 245 247 250 250 252 253 257 253 249 253 257 259 261 263 263 265 264 261 257 251 253 256 259 259
183 179 182 177 178 179 193 212 215 203 121 129 173 224 270 298 326 338 320 285 255 251 257 253 251 254 257 259 258 261 262 263 262 256 253 259 263 263 262 264 265 267 265 257 253 256 257 257 258
200 194 195 192 201 215 232 242 244 243 249 265 271 278 282 292 311 310 300 293 268 258 252 255 259 263 262 261 259 262 263 265 267 266 262 264 267 267 265 263 265 268 270 265 261 257 255 256 258
206 203 207 212 222 230 241 251 262 261 260 264 271 275 280 288 294 298 296 285 265 262 258 259 265 268 266 265 264 267 268 266 269 272 271 270 271 271 266 265 264 266 266 266 265 262 258 256 259
207 212 219 222 233 236 239 251 262 271 270 270 270 274 277 280 284 287 284 274 268 265 260 262 267 271 271 269 267 269 271 270 272 272 272 274 275 274 267 269 268 268 267 267 264 261 260 261 261
209 222 227 228 239 245 251 257 262 271 272 275 272 275 276 277 279 283 281 273 269 269 265 265 266 269 268 269 271 274 273 274 274 275 275 275 276 277 273 271 269 269 270 269 266 265 266 267 268
221 229 230 239 244 250 257 257 259 267 274 272 270 274 275 274 282 283 284 280 274 274 272 270 267 268 268 268 272 274 276 274 275 276 276 276 277 278 276 273 273 274 275 274 273 272 269 270 269
233 241 244 247 251 252 257 258 262 268 269 270 271 273 278 281 282 282 282 282 279 276 272 271 273 273 271 270 272 274 274 275 276 276 277 278 279 278 277 276 275 275 276 276 275 275 272 271 269
241 248 251 253 256 257 261 262 263 267 267 270 275 278 280 282 281 278 280 285 286 282 277 275 276 276 274 273 274 275 276 275 277 277 278 279 279 278 278 278 278 277 276 276 275 273 273 271 269
247 253 255 254 257 260 263 262 262 261 264 269 271 277 279 278 280 280 282 285 288 289 288 284 279 277 276 278 277 277 278 278 278 278 279 281 281 280 280 280 279 279 277 276 277 276 272 269 267
254 257 259 258 259 262 265 265 263 262 264 270 273 279 280 277 278 280 283 286 286 286 287 286 284 283 282 283 283 281 281 281 279 280 283 284 282 281 280 279 280 279 279 279 277 275 275 270 267
260 258 259 261 263 265 268 268 267 268 268 270 273 276 279 277 277 280 283 284 283 281 281 284 284 285 286 286 285 285 285 286 285 284 285 285 284 284 283 282 281 280 279 280 280 277 275 273 271
265 260 260 263 266 267 269 268 269 271 272 276 277 277 278 276 278 280 282 284 281 278 279 280 282 284 288 289 289 288 288 288 289 287 286 287 286 285 283 284 281 280 281 282 280 279 277 274 270
273 265 263 265 269 271 270 270 271 274 276 277 278 280 280 278 279 278 279 281 280 278 278 278 279 282 286 287 289 289 288 287 288 288 287 287 289 288 285 283 282 282 282 281 279 278 277 275 272
273 275 269 266 269 273 276 274 276 275 276 277 277 279 281 281 280 278 276 278 279 280 282 281 282 283 285 287 290 291 293 292 290 289 289 289 289 289 287 284 284 283 281 279 275 276 276 278 277
276 278 278 272 271 273 278 280 280 278 278 279 281 282 282 283 284 279 277 279 279 280 282 282 284 286 287 286 288 291 292 293 292 291 290 290 290 289 287 286 287 285 283 279 275 276 275 276 276
280 279 280 274 271 273 276 283 283 281 280 280 281 280 282 286 287 283 280 281 279 279 279 280 282 284 284 284 285 287 288 288 290 290 288 289 288 288 289 288 289 286 283 278 275 274 275 275 275
280 278 279 278 274 273 274 279 281 281 279 280 281 282 283 284 283 281 280 281 280 279 279 279 279 281 283 283 285 286 287 287 288 287 287 288 288 286 287 287 288 287 285 280 275 273 273 275 275
278 279 278 278 276 275 277 280 282 282 280 283 285 285 284 283 282 279 279 280 280 279 279 280 280 280 281 283 285 286 286 286 286 285 287 289 289 287 286 286 286 285 284 281 278 275 275 276 275
278 281 281 279 276 276 281 285 284 281 281 283 286 287 286 285 282 279 278 279 280 279 279 279 281 280 280 282 284 285 286 286 286 286 287 289 289 286 284 286 284 283 281 280 279 278 277 277 275
278 280 281 281 279 280 283 285 284 283 282 283 285 285 284 283 282 278 276 278 278 278 277 277 279 278 280 282 283 285 287 288 288 288 289 289 288 287 286 285 284 282 281 279 278 278 279 278 276
280 282 282 282 282 284 286 289 286 285 284 286 286 285 284 284 281 279 277 277 277 277 277 278 279 279 281 282 283 285 287 288 289 290 290 289 288 286 286 285 282 281 280 280 280 278 277 276 276
281 282 282 283 285 286 289 290 290 287 286 286 287 286 285 285 283 281 280 278 278 277 275 277 276 278 280 281 281 283 285 286 287 289 289 289 288 286 285 284 281 279 278 278 279 279 278 277 276
280 283 283 283 285 286 288 290 292 290 288 286 285 285 286 287 287 285 281 280 278 276 274 276 274 275 277 278 279 280 282 284 286 288 289 289 287 286 285 285 281 280 279 279 278 278 277 277 276
282 285 287 288 289 288 287 288 290 290 288 285 285 285 286 287 288 287 284 282 279 277 276 276 275 275 276 278 279 279 280 281 282 285 287 287 287 286 287 285 282 281 279 277 275 276 277 277 276
284 284 285 287 290 290 288 289 291 291 287 286 284 285 287 287 287 287 285 284 282 280 279 276 275 276 277 279 279 279 280 281 282 284 286 286 286 285 285 285 284 283 281 278 275 274 276 277 277
284 283 283 284 287 289 290 291 290 291 288 287 285 284 286 286 286 285 284 284 283 283 281 279 278 278 277 278 279 279 280 280 282 284 285 285 284 284 286 286 284 283 282 280 278 275 276 276 277
285 285 284 284 287 289 290 292 294 292 290 289 287 287 285 284 285 285 284 283 282 282 283 282 280 279 279 279 278 278 279 281 282 283 284 284 283 283 285 286 285 284 282 280 278 276 275 276 276
285 285 285 286 287 289 291 292 294 291 290 290 288 287 286 286 284 284 284 283 282 281 282 283 281 279 279 278 277 277 279 280 281 281 280 281 282 283 284 286 286 285 284 281 279 277 277 277 276
284 283 284 285 289 290 290 290 293 290 290 290 290 289 288 288 288 286 284 283 282 281 282 282 282 280 279 278 277 276 278 280 280 280 280 280 281 282 282 284 285 284 283 281 281 279 278 277 277
Height
5885 5885 5886 5887 5889 5888 5888 5888 5888 5888 5888 5887 5887 5887 5886 5886 5886 5888 5885 5883 5883 5882 5881 5881 5881 5881 5881 5881 5880 5880 5880 5879 5879 5879 5878 5878 5877 5876 5876 5875 5875 5874 5874 5874 5874 5874 5874 5874 5874
5884 5885 5887 5888 5888 5888 5888 5888 5888 5888 5887 5887 5887 5886 5886 5885 5885 5884 5883 5882 5882 5881 5881 5881 5880 5880 5880 5880 5880 5879 5879 5878 5878 5877 5877 5877 5876 5875 5875 5874 5874 5873 5873 5872 5872 5872 5872 5872 5872
5884 5885 5887 5887 5887 5888 5888 5887 5887 5887 5887 5886 5886 5886 5885 5885 5884 5883 5882 5881 5880 5880 5880 5880 5880 5880 5879 5879 5879 5878 5878 5877 5877 5876 5876 5875 5875 5874 5873 5873 5872 5872 5871 5870 5870 5870 5869 5869 5869
5884 5885 5886 5886 5886 5887 5887 5887 5886 5886 5886 5886 5885 5885 5884 5883 5883 5882 5881 5880 5879 5879 5879 5879 5879 5878 5878 5878 5877 5877 5876 5876 5875 5875 5874 5874 5873 5872 5871 5871 5870 5869 5869 5868 5868 5867 5867 5867 5867
5883 5884 5885 5885 5885 5885 5885 5885 5885 5885 5885 5884 5884 5883 5883 5882 5881 5880 5880 5879 5878 5878 5878 5877 5877 5877 5877 5876 5876 5875 5875 5874 5874 5873 5872 5872 5871 5870 5869 5869 5868 5868 5867 5866 5865 5865 5864 5864 5864
5883 5883 5884 5884 5884 5884 5884 5884 5884 5883 5883 5882 5882 5882 5881 5881 5880 5879 5878 5878 5877 5877 5877 5876 5876 5876 5875 5875 5874 5874 5873 5872 5872 5871 5870 5870 5869 5868 5867 5866 5866 5865 5864 5864 5863 5862 5862 5861 5861
5883 5883 5883 5883 5883 5883 5883 5883 5882 5882 5882 5881 5881 5881 5880 5879 5879 5878 5877 5876 5876 5875 5875 5874 5874 5874 5873 5873 5873 5872 5871 5870 5870 5869 5868 5867 5867 5866 5865 5864 5863 5862 5862 5861 5861 5860 5859 5858 5858
5881 5882 5881 5882 5882 5882 5882 5881 5881 5881 5880 5880 5880 5879 5879 5878 5877 5877 5876 5875 5875 5874 5873 5873 5872 5872 5871 5871 5870 5870 5869 5868 5868 5867 5866 5865 5864 5863 5862 5862 5861 5860 5859 5858 5858 5857 5856 5856 5855
5880 5881 5880 5880 5880 5880 5880 5880 5880 5879 5879 5879 5878 5878 5878 5877 5876 5875 5875 5874 5873 5872 5872 5871 5870 5870 5869 5869 5868 5867 5867 5866 5865 5864 5863 5862 5862 5861 5860 5859 5858 5857 5856 5855 5855 5854 5853 5852 5852
5878 5879 5879 5879 5879 5878 5878 5878 5878 5878 5878 5877 5877 5876 5876 5875 5874 5874 5873 5872 5872 5871 5870 5869 5868 5868 5867 5866 5866 5865 5864 5863 5862 5861 5860 5859 5858 5857 5856 5856 5855 5854 5853 5852 5851 5851 5850 5849 5848
5876 5877 5877 5876 5876 5876 5876 5876 5876 5876 5876 5876 5875 5875 5874 5873 5873 5872 5871 5870 5870 5869 5868 5868 5866 5866 5865 5864 5863 5862 5861 5860 5859 5858 5857 5856 5855 5854 5853 5852 5851 5850 5849 5849 5848 5847 5846 5845 5845
5875 5875 5875 5875 5874 5874 5874 5874 5874 5874 5874 5874 5873 5873 5872 5872 5871 5870 5869 5868 5868 5867 5866 5866 5865 5864 5863 5862 5861 5860 5858 5857 5856 5855 5854 5853 5852 5851 5850 5849 5848 5847 5846 5845 5844 5843 5843 5842 5842
5873 5873 5873 5873 5872 5872 5872 5872 5872 5872 5872 5872 5871 5871 5870 5869 5869 5868 5867 5866 5866 5865 5864 5863 5862 5861 5860 5859 5858 5857 5856 5855 5854 5853 5851 5850 5849 5847 5846 5845 5844 5843 5843 5842 5841 5840 5839 5839 5839
5872 5871 5871 5871 5870 5870 5870 5870 5870 5870 5869 5869 5869 5868 5867 5867 5866 5866 5865 5864 5863 5862 5862 5861 5860 5859 5858 5857 5856 5855 5853 5852 5851 5850 5848 5847 5846 5844 5843 5842 5841 5840 5839 5838 5837 5837 5836 5836 5835
5870 5870 5870 5869 5869 5868 5868 5868 5868 5867 5867 5867 5866 5866 5865 5864 5864 5863 5863 5862 5861 5860 5859 5858 5857 5856 5855 5854 5853 5852 5851 5849 5848 5847 5845 5844 5842 5841 5840 5839 5837 5836 5835 5834 5833 5833 5833 5832 5832
5868 5868 5868 5868 5867 5866 5868 5867 5865 5865 5865 5864 5864 5863 5862 5862 5861 5860 5860 5859 5858 5857 5856 5855 5854 5853 5852 5851 5850 5849 5848 5846 5845 5844 5842 5841 5839 5838 5836 5835 5833 5832 5831 5830 5829 5829 5829 5828 5828
5867 5867 5866 5866 5865 5864 5864 5864 5864 5863 5862 5862 5861 5860 5860 5859 5858 5857 5857 5856 5855 5854 5853 5852 5851 5850 5849 5848 5847 5846 5844 5843 5842 5840 5839 5838 5836 5835 5833 5832 5830 5828 5827 5826 5825 5825 5825 5825 5824
5866 5865 5864 5864 5863 5862 5862 5861 5861 5860 5860 5859 5858 5858 5857 5856 5855 5854 5854 5853 5852 5851 5850 5849 5848 5847 5846 5845 5844 5842 5841 5840 5838 5837 5836 5834 5833 5831 5830 5828 5827 5825 5824 5823 5822 5821 5821 5821 5820
5863 5863 5862 5862 5861 5860 5859 5859 5858 5858 5857 5856 5855 5855 5854 5853 5852 5851 5850 5850 5849 5848 5847 5846 5845 5843 5842 5841 5840 5839 5838 5836 5835 5833 5832 5830 5829 5828 5826 5825 5823 5822 5820 5819 5819 5818 5818 5817 5816
5861 5861 5860 5859 5858 5858 5857 5856 5855 5855 5854 5853 5852 5851 5850 5849 5848 5847 5846 5845 5845 5844 5843 5842 5840 5839 5838 5838 5836 5835 5834 5833 5831 5830 5828 5826 5825 5823 5822 5820 5819 5818 5817 5816 5815 5814 5814 5813 5812
5858 5858 5858 5857 5856 5855 5855 5854 5853 5852 5851 5850 5849 5848 5847 5846 5845 5843 5842 5841 5841 5840 5839 5838 5837 5836 5835 5833 5832 5831 5829 5828 5827 5825 5823 5822 5820 5819 5817 5816 5814 5813 5812 5811 5810 5810 5809 5808 5807
5855 5855 5854 5854 5853 5852 5852 5851 5850 5848 5847 5846 5844 5843 5842 5841 5840 5839 5838 5837 5836 5835 5834 5833 5832 5831 5830 5829 5828 5827 5825 5824 5823 5821 5819 5817 5815 5814 5812 5810 5809 5808 5807 5806 5805 5804 5803 5803 5802
5852 5852 5851 5850 5850 5849 5848 5847 5847 5845 5843 5842 5840 5839 5838 5836 5835 5834 5833 5832 5831 5830 5829 5828 5827 5826 5826 5824 5823 5822 5821 5819 5818 5816 5814 5812 5810 5808 5806 5805 5803 5802 5801 5800 5800 5799 5798 5797 5797
5849 5848 5848 5847 5846 5846 5845 5844 5843 5841 5839 5838 5836 5834 5833 5832 5830 5829 5828 5827 5826 5825 5824 5823 5822 5821 5820 5819 5818 5817 5816 5814 5812 5810 5808 5806 5804 5802 5800 5799 5797 5796 5796 5795 5794 5793 5792 5792 5791
5845 5845 5844 5843 5842 5842 5840 5839 5839 5836 5835 5833 5831 5830 5828 5827 5826 5824 5823 5822 5821 5820 5819 5818 5817 5816 5815 5813 5812 5811 5810 5808 5806 5804 5802 5800 5798 5796 5795 5793 5791 5790 5789 5788 5788 5787 5786 5786 5785
5841 5841 5841 5840 5838 5837 5835 5834 5834 5831 5829 5828 5826 5825 5823 5822 5821 5819 5818 5816 5815 5814 5813 5811 5811 5810 5809 5807 5806 5805 5803 5802 5800 5798 5796 5794 5792 5790 5788 5787 5785 5783 5782 5782 5781 5781 5780 5779 5778
5836 5836 5835 5834 5832 5831 5830 5829 5828 5826 5824 5822 5820 5819 5818 5817 5815 5813 5812 5810 5809 5807 5806 5805 5804 5803 5802 5801 5799 5798 5796 5795 5793 5791 5789 5787 5785 5784 5782 5780 5779 5777 5776 5775 5774 5774 5773 5773 5772
5832 5831 5830 5828 5826 5825 5825 5824 5823 5820 5818 5816 5814 5813 5811 5810 5808 5806 5805 5804 5802 5801 5799 5798 5797 5796 5794 5793 5792 5791 5789 5788 5786 5784 5783 5781 5779 5777 5775 5773 5772 5771 5769 5768 5767 5767 5766 5766 5765
5827 5826 5824 5822 5821 5820 5819 5820 5816 5813 5811 5810 5808 5806 5804 5803 5801 5799 5798 5797 5795 5794 5792 5791 5789 5788 5787 5786 5784 5783 5782 5781 5779 5777 5776 5774 5772 5771 5769 5767 5765 5764 5762 5761 5761 5760 5759 5759 5758
5820 5819 5818 5817 5815 5813 5812 5814 5809 5807 5805 5803 5801 5799 5797 5796 5794 5792 5791 5789 5788 5786 5785 5783 5782 5780 5779 5778 5777 5776 5775 5773 5772 5770 5768 5766 5765 5763 5761 5760 5758 5756 5755 5754 5754 5753 5752 5751 5751